Location: Bukit Lungun
(2.6833°N, 113.9667°E)
Time: 10:22:19
(UTC+00:00)

Cosmos 1933 - Pass Details

Date: 02 March 2021
Orbit: 547 x 563 km, 82.5° (Epoch: 20 April)

Event Time Altitude Azimuth Distance (km) Brightness Sun altitude
Rises 21:36:59 0° 194° (SSW) 2,709 6.8 -15.0°
Reaches altitude 10° 21:39:12 10° 200° (SSW) 1,814 5.8 -14.4°
Maximum altitude 21:43:02 46° 274° (W) 740 3.5 -13.5°
Drops below altitude 10° 21:46:51 10° 348° (NNW) 1,811 5.8 -12.5°
Sets 21:49:04 0° 354° (N) 2,703 6.7 -12.0°
